User: anonymous   Login
Location: Étang Rond
(42.7927°N, 1.0661°E)
Time: 12:45:07
(UTC+00:00)
Language:

Meteor 2-14 Rocket - Orbit

View from above orbital plane
View from above orbital plane
View from above satellite
View from above satellite

Ground track
Ground track

The orbit is defined by the following mean orbital elements,

1 16736U          26022.30560975 +.00000000 +00000-0 +24488-4 0 00003
2 16736  82.5356  46.8194 0011578 275.7916  84.1924 13.84853058    08
Epoch (UTC): 22 January 2026 07:20:04
Eccentricity: 0.0011578
inclination: 82.5356°
perigee height: 938 km
apogee height: 955 km
right ascension of ascending node: 46.8194°
argument of perigee: 275.7916°
revolutions per day: 13.84853058
mean anomaly at epoch: 84.1924°

The dashed part of the orbit path shows where the satellite is in the earth's shadow,  

DLR